sat.trackr.live / text

‹ back to catalog

STARLINK-31240

NORAD 59041 · 2024-038U

PAYLOAD ACTIVE UNKNOWN

§ Identity

Operator
Country
US
Launch date
2024-02-25
Launch site
AFETR
Launch vehicle
Mass (kg)
RCS (m²)

Purposes: comms

External: N2YO · Heavens-Above · Gunter

§ Orbital elements

Epoch: 2026-09-20T08:02:45.678624Z

Period
94.27 min
Inclination
43.0039°
Eccentricity
0.0000783
Mean motion
15.27579176 rev/d
Perigee alt
482.5 km
Apogee alt
483.6 km
Semi-major
6,861.2 km
B*
8.4253e-6
RAAN
4.5786°
Arg perigee
296.2260°
Mean anomaly
63.8511°
Rev number
14,456

§ Raw data

STARLINK-312401 59041U 24038U   26263.33525091 -.00000030  00000+0  84253-5 0  99932 59041  43.0039   4.5786 0000783 296.2260  63.8511 15.27579176144569

JSON: /api/v1/satellites/59041 · /tle

For live sub-satellite position, see the globe view (requires WebGL).

§ Visibility from observer

Set your observer location to see the next 7 days of passes ≥ 10°. The values pass through the URL so the page stays shareable.

No JS? Fill the form by hand. The geolocation button needs JavaScript.